EST,Max TemperatureF,Mean TemperatureF,Min TemperatureF,Max Dew PointF,MeanDew PointF,Min DewpointF,Max Humidity, Mean Humidity, Min Humidity, Max Sea Level PressureIn, Mean Sea Level PressureIn, Min Sea Level PressureIn, Max VisibilityMiles, Mean VisibilityMiles, Min VisibilityMiles, Max Wind SpeedMPH, Mean Wind SpeedMPH, Max Gust SpeedMPH,PrecipitationIn, CloudCover, Events, WindDirDegrees
2012-12-1,48,34,21,37,30,21,100,81,61,30.41,30.33,30.26,10,8,3,13,4,,0.04,7,,124
2012-12-2,55,50,44,51,43,35,96,80,68,30.25,30.10,29.99,10,9,6,14,8,22,0.03,5,Rain,131
2012-12-3,57,51,45,52,46,41,93,84,67,30.26,30.17,30.09,10,10,7,13,5,,0.00,6,,316
2012-12-4,71,60,46,56,51,43,100,80,44,30.13,30.02,29.91,10,8,2,18,7,30,0.62,5,Rain,161
2012-12-5,46,38,30,42,28,18,93,69,52,30.42,30.23,30.02,10,10,9,20,6,25,0.01,8,Snow,319
2012-12-6,43,34,25,22,19,16,78,57,40,30.44,30.29,30.10,10,10,10,13,6,,0.00,2,,151
2012-12-7,43,40,36,39,35,21,100,85,52,30.09,30.01,29.94,10,9,4,12,6,,0.11,6,Rain,154
2012-12-8,53,45,37,48,41,33,100,89,72,30.18,29.93,29.80,10,9,6,17,6,22,0.12,8,Rain,304
2012-12-9,45,39,34,40,31,27,87,75,65,30.31,30.12,29.80,10,10,8,17,9,20,0.08,8,Rain,118
2012-12-10,59,48,37,52,41,34,93,88,77,29.79,29.65,29.53,10,10,6,15,8,,0.37,8,Rain,336
2012-12-11,37,32,28,34,28,22,93,78,57,30.21,29.98,29.74,10,10,5,12,6,21,0.00,8,Snow,317
2012-12-12,43,34,26,25,23,22,89,69,45,30.48,30.37,30.22,10,10,10,12,5,18,0.00,3,,168
2012-12-13,45,34,24,25,22,20,85,69,37,30.51,30.42,30.27,10,10,10,12,7,16,0.00,0,,149
2012-12-14,45,36,28,32,26,20,93,77,58,30.31,30.26,30.23,10,10,8,10,5,21,0.00,3,,187
2012-12-15,45,36,28,34,30,26,96,80,63,30.34,30.23,30.02,10,9,6,10,5,,0.00,4,,148
2012-12-16,51,47,43,43,38,31,93,74,60,29.99,29.83,29.75,10,10,9,17,12,28,0.05,7,Rain,142
2012-12-17,53,50,45,46,44,42,93,84,72,29.78,29.70,29.55,10,9,6,12,7,,0.45,8,Rain,137
2012-12-18,45,41,37,45,39,32,100,88,73,29.77,29.58,29.47,10,9,6,14,3,22,0.34,8,Rain,291
2012-12-19,42,35,28,32,30,27,96,80,58,30.22,30.00,29.78,10,10,6,12,3,,0.00,6,,309
2012-12-20,41,36,30,35,29,24,92,74,55,30.22,29.91,29.44,10,10,10,23,9,33,0.09,5,Rain,149
2012-12-21,37,34,32,36,32,28,100,87,70,29.47,29.30,29.21,10,8,2,15,4,25,0.43,8,Rain-Snow,283
2012-12-22,34,31,28,27,24,20,93,76,56,29.96,29.66,29.37,10,5,1,23,16,38,0.01,8,Snow,307
2012-12-23,39,34,30,27,23,20,86,67,46,30.04,29.92,29.83,10,10,10,14,3,18,0.00,7,,282
2012-12-24,35,32,28,30,22,18,100,71,57,30.11,29.99,29.86,10,8,1,15,7,,0.00,6,Snow,122
2012-12-25,33,30,28,30,26,21,100,85,64,30.36,30.13,29.87,10,8,1,12,3,,0.06,8,Snow,333
2012-12-26,28,24,21,25,20,15,100,84,66,30.38,29.99,29.72,10,4,0,14,5,,0.00,6,Fog-Snow,74
2012-12-27,28,26,24,27,23,20,100,90,80,30.07,29.82,29.67,10,5,0,20,10,28,0.00,8,Fog-Rain-Snow,316
2012-12-28,30,27,24,26,23,21,93,87,79,30.18,30.12,30.05,10,10,7,9,4,,0.06,7,Snow,349
2012-12-29,28,26,24,27,24,20,100,92,80,30.04,29.77,29.63,10,3,0,16,5,,0.00,8,Fog-Snow,325
2012-12-30,28,24,21,21,17,15,81,72,58,30.29,30.07,29.81,10,9,4,21,9,33,0.00,7,Snow,315
2012-12-31,,,,,,,,,,,,,,,,,,,,,,